Find Starlink 2499

NORAD ID: 48377 Int'l Des: 2021-038 Owner: SPXS Country: US Constellation: starlink operational
LEOCIRCULAR

当前视图

正在加载3D地球...

About Starlink 2499

Starlink 2499 (NORAD 48377) is a starlink constellation satellite (v1.0) launched May 4, 2021 by SPXS of US. It operates in LEO, CIRCULAR orbit with a mass of 260.00 kg.

即将过境

Passes for default location (London). Set your location on the main map for personalized predictions.

高度历史

Loading altitude history...

两行轨道根数

1 48377U 21038AA 26246.39518817 .00000943 00000-0 42169-4 0 9997
2 48377 53.1595 240.8824 0001515 85.2922 274.8252 15.31694590294454
Epoch: Sep 3, 2026 • Age: 17 hours

当前状态

高度 481.8 km
远地点 / 近地点 N/A
速度 7.62 km/s
星下点 -33.03°S, 172.51°W
发射日期 May 4, 2021
运行时间 5.3 years
类型 internet

技术详情

分类 Payload
质量 260.00 kg
干质量 248.00 kg
总质量 260.00 kg
长度 0.20 m
直径 2.80 m
跨度 9.00 m
形状 Box + pan
制造商 SPXS
平台类型 Starlink
阶段状态 In Orbit
所有者/国家 SPXS/US

Most Searched